Overview Statistics Trail Chart Weather Telemetry Raw packets
 

This is the latest recevied weather packets stored in our database for station/object LU3HGB-WX. If no packets are shown the sender has not sent any weather packets the latest 10 day(s).

<< 83 84 85 86 87 88 89 >>
Time Temp. Humidity Pressure Rain* Wind** Luminosity Snow
1788078459 1.67° C 83% 1014 hPa 0 mm - 0 W/m² -
1788078159 2.22° C 82% 1014 hPa 0 mm - 0 W/m² -
1788077861 2.22° C 80% 1014 hPa 0 mm - 0 W/m² -
1788077559 2.22° C 81% 1014 hPa 0 mm - 0 W/m² -
1788077259 2.22° C 81% 1014 hPa 0 mm - 0 W/m² -
1788076959 2.22° C 81% 1014 hPa 0 mm - 0 W/m² -
1788076664 2.78° C 81% 1014 hPa 0 mm - 0 W/m² -
1788076360 2.78° C 79% 1014 hPa 0 mm - 0 W/m² -
1788076061 2.78° C 79% 1014 hPa 0 mm - 0 W/m² -
1788075760 2.22° C 81% 1014 hPa 0 mm - 0 W/m² -
1788075459 2.78° C 80% 1014 hPa 0 mm - 0 W/m² -
1788075159 2.78° C 81% 1014 hPa 0 mm - 0 W/m² -
1788074859 2.78° C 81% 1014 hPa 0 mm - 0 W/m² -
1788074560 2.78° C 79% 1014 hPa 0 mm - 0 W/m² -
1788074261 2.78° C 78% 1014 hPa 0 mm - 0 W/m² -
1788073960 2.78° C 79% 1015 hPa 0 mm - 0 W/m² -
1788073659 3.33° C 79% 1015 hPa 0 mm - 0 W/m² -
1788073359 3.33° C 79% 1015 hPa 0 mm - 0 W/m² -
1788073059 3.33° C 79% 1015 hPa 0 mm - 0 W/m² -
1788072761 3.33° C 78% 1015 hPa 0 mm - 0 W/m² -
1788072459 3.89° C 75% 1015 hPa 0 mm - 0 W/m² -
1788072159 3.33° C 76% 1015 hPa 0 mm - 0 W/m² -
1788071860 3.33° C 78% 1015 hPa 0 mm - 0 W/m² -
1788071560 3.33° C 78% 1015 hPa 0 mm - 0 W/m² -
1788071259 3.33° C 78% 1015 hPa 0 mm - 0 W/m² -

* Rain latest hour (hover to see other rain measurements)
** Current wind speed in m/s (hover to see current wind gust speed)